カタログに戻る

MOZHAYETS

運用中アマチュア無線SSO
NORAD 27560·PAYLOAD·🇷🇺 Russia

打ち上げ Nov 28, 2002 から Plesetsk Cosmodrome

Loading…

次のパス (今後24時間)

TLE

最新Source: Space-Track

元期: Sep 14, 2026, 15:26 UTC

1 27560U 02054B   26257.64328616  .00000350  00000-0  79375-4 0  9992
2 27560  98.4277 116.2138 0039283  98.3510 319.0259 14.61877813265347

AllMySatでMOZHAYETSをリアルタイム追跡

Download on the App Store